Вернуться в каталог

STARLINK-2526

АктивенСвязьVLEO
NORAD 48378·PAYLOAD·🇺🇸 United States

Запущен May 4, 2021 с Cape Canaveral Space Force Station

Loading…

Ближайшие Пролёты (ближайшие 24 часа)

TLE

СвежийSource: CelesTrak SupGP

Эпоха: Sep 15, 2026, 00:52 UTC

1 48378C 21038AB  26258.03659722 -.00020710  00000+0 -66607-3 0  2588
2 48378  53.1570 186.8422 0001320  88.6474 342.2537 15.31708224    17

Отслеживайте STARLINK-2526 в реальном времени с AllMySat

Download on the App Store